Location: Jablonec nad Nisou
(50.7170°N, 15.1830°E)
Time: 12:51:48
(UTC+02:00)

ISS - Pass Details

Date: 02 April 2019
Orbit: 408 x 410 km, 51.6° (Epoch: 24 April)

Event Time Altitude Azimuth Distance (km) Brightness Sun altitude
Rises 22:32:33 0° 282° (WNW) 2,337 0.9 -25.6°
Reaches altitude 10° 22:35:07 10° 262° (W) 1,472 -0.6 -25.8°
Enters shadow 22:35:23 11° 258° (WSW) 1,399 -0.8 -25.9°
